Location: Izdebno
(52.6670°N, 16.2170°E)
Time: 04:38:37
(UTC+02:00)

A-11 Canister half - Pass Details

Date: 14 February 2023
Orbit: 1526 x 1682 km, 47.3° (Epoch: 24 March)

Event Time Altitude Azimuth Distance (km) Brightness Sun altitude
Rises 01:55:02 0° 203° (SSW) 4,708 - -45.2°
Reaches altitude 10° 01:58:40 10° 192° (SSW) 3,711 - -44.9°
Maximum altitude 02:06:04 28° 139° (SE) 2,580 - -44.2°
Exits shadow 02:08:35 24° 114° (ESE) 2,734 10.3 -43.9°
Drops below altitude 10° 02:13:26 10° 85° (E) 3,698 11.4 -43.4°
Sets 02:17:01 0° 75° (ENE) 4,689 12.2 -43.0°
